• In Uzbekistan
  • List of Countries
  • For 7 days
  • Water Temperature
  • Satellite Maps
  • Weather Map
  • Weather Widgets
  • user-avatar
    Login

    Hourly Weather Shimihyur

    Today, 22 February, Friday

    Time Temperature Precipitation Wind Pressure Humidity
    00:00 -6°C° 0 mm 3 mps 603 mmHg 50%
    01:00 -7°C° 0 mm 3 mps 603 mmHg 50%
    02:00 -7°C° 0 mm 3 mps 603 mmHg 51%
    03:00 -6°C° 0 mm 2 mps 603 mmHg 51%
    04:00 -6°C° 0 mm 2 mps 603 mmHg 52%
    05:00 -6°C° 0 mm 2 mps 603 mmHg 52%
    06:00 -6°C° 0 mm 2 mps 603 mmHg 52%
    07:00 -5°C° 0 mm 2 mps 603 mmHg 50%
    08:00 -2°C° 0 mm 1 mps 604 mmHg 49%
    09:00 -1°C° 0 mm 1 mps 605 mmHg 47%
    10:00 0°C° 0 mm 1 mps 605 mmHg 47%
    11:00 -2°C° 0 mm 2 mps 605 mmHg 48%
    12:00 -1°C° 0 mm 2 mps 605 mmHg 48%
    13:00 -1°C° 0 mm 2 mps 605 mmHg 52%
    14:00 -2°C° 0 mm 2 mps 605 mmHg 56%
    15:00 -2°C° 0 mm 2 mps 605 mmHg 61%
    16:00 -3°C° 0 mm 2 mps 605 mmHg 68%
    17:00 -4°C° 0 mm 2 mps 605 mmHg 75%
    18:00 -4°C° 0 mm 1 mps 604 mmHg 83%
    19:00 -4°C° 0 mm 1 mps 605 mmHg 79%
    20:00 -4°C° 0 mm 1 mps 605 mmHg 76%
    21:00 -4°C° 0 mm 1 mps 605 mmHg 73%
    22:00 -4°C° 0 mm 1 mps 605 mmHg 72%
    23:00 -4°C° 0 mm 1 mps 605 mmHg 70%

    Tomorrow, 23 February, Saturday

    Time Temperature Precipitation Wind Pressure Humidity
    00:00 -6°C° 0 mm 2 mps 605 mmHg 68%
    01:00 -6°C° 0 mm 2 mps 605 mmHg 68%
    02:00 -6°C° 0 mm 2 mps 605 mmHg 67%
    03:00 -6°C° 0 mm 2 mps 605 mmHg 66%
    04:00 -6°C° 0 mm 2 mps 605 mmHg 65%
    05:00 -6°C° 0 mm 2 mps 605 mmHg 64%
    06:00 -6°C° 0 mm 2 mps 605 mmHg 63%
    07:00 -3°C° 0 mm 1 mps 606 mmHg 61%
    08:00 -2°C° 0 mm 1 mps 607 mmHg 58%
    09:00 -1°C° 0 mm 1 mps 608 mmHg 55%
    10:00 0°C° 0 mm 1 mps 608 mmHg 56%
    11:00 +1°C° 0 mm 1 mps 608 mmHg 56%
    12:00 +1°C° 0 mm 1 mps 609 mmHg 56%
    13:00 +1°C° 0 mm 1 mps 608 mmHg 60%
    14:00 +1°C° 0 mm 1 mps 608 mmHg 63%
    15:00 +1°C° 0 mm 1 mps 608 mmHg 66%
    16:00 0°C° 0 mm 1 mps 608 mmHg 72%
    17:00 -1°C° 0 mm 1 mps 607 mmHg 78%
    18:00 -2°C° 0 mm 1 mps 607 mmHg 84%
    19:00 -3°C° 0 mm 1 mps 607 mmHg 79%
    20:00 -3°C° 0 mm 1 mps 607 mmHg 75%
    21:00 -3°C° 0 mm 1 mps 607 mmHg 70%
    22:00 -3°C° 0 mm 1 mps 607 mmHg 65%
    23:00 -3°C° 0 mm 1 mps 607 mmHg 60%

    Day after tomorrow, 24 February, Sunday

    Time Temperature Precipitation Wind Pressure Humidity
    00:00 -5°C° 0 mm 2 mps 607 mmHg 54%
    01:00 -5°C° 0 mm 2 mps 607 mmHg 52%
    02:00 -5°C° 0 mm 2 mps 607 mmHg 50%
    03:00 -5°C° 0 mm 2 mps 606 mmHg 47%
    04:00 -5°C° 0 mm 2 mps 606 mmHg 47%
    05:00 -5°C° 0 mm 2 mps 606 mmHg 47%
    06:00 -5°C° 0 mm 2 mps 606 mmHg 47%
    07:00 -2°C° 0 mm 1 mps 607 mmHg 46%
    08:00 -1°C° 0 mm 1 mps 608 mmHg 45%
    09:00 -1°C° 0 mm 0 mps 609 mmHg 44%
    10:00 +1°C° 0 mm 1 mps 609 mmHg 46%
    11:00 +1°C° 0 mm 1 mps 609 mmHg 48%
    12:00 +1°C° 0 mm 2 mps 609 mmHg 49%
    13:00 +1°C° 0 mm 2 mps 608 mmHg 52%
    14:00 +1°C° 0 mm 2 mps 608 mmHg 54%
    15:00 +1°C° 0 mm 2 mps 608 mmHg 56%
    16:00 +1°C° 0 mm 1 mps 607 mmHg 62%
    17:00 -1°C° 0 mm 1 mps 607 mmHg 68%
    18:00 -2°C° 0 mm 1 mps 606 mmHg 73%
    19:00 -2°C° 0 mm 1 mps 606 mmHg 71%
    20:00 -3°C° 0 mm 1 mps 606 mmHg 68%
    21:00 -3°C° 0 mm 1 mps 607 mmHg 65%
    22:00 -3°C° 0 mm 1 mps 607 mmHg 65%
    23:00 -3°C° 0 mm 1 mps 607 mmHg 65%

    25 February, Monday

    Time Temperature Precipitation Wind Pressure Humidity
    00:00 -3°C° 0 mm 1 mps 607 mmHg 65%
    01:00 -4°C° 0 mm 1 mps 606 mmHg 69%
    02:00 -4°C° 0 mm 1 mps 606 mmHg 73%
    03:00 -4°C° 0 mm 1 mps 606 mmHg 77%
    04:00 -6°C° 0 mm 1 mps 606 mmHg 78%
    05:00 -6°C° 0 mm 1 mps 606 mmHg 80%
    06:00 -6°C° 0 mm 1 mps 606 mmHg 82%
    07:00 -7°C° 0 mm 2 mps 607 mmHg 80%
    08:00 -6°C° 0 mm 2 mps 607 mmHg 78%
    09:00 -6°C° 0 mm 2 mps 608 mmHg 75%
    10:00 -5°C° 0 mm 2 mps 608 mmHg 72%
    11:00 -5°C° 0 mm 2 mps 608 mmHg 69%
    12:00 -4°C° 0 mm 2 mps 607 mmHg 66%
    13:00 -5°C° 0 mm 2 mps 607 mmHg 67%
    14:00 -5°C° 0 mm 2 mps 607 mmHg 68%
    15:00 -5°C° 0 mm 2 mps 606 mmHg 69%
    16:00 -6°C° 0 mm 2 mps 606 mmHg 73%
    17:00 -6°C° 0 mm 1 mps 606 mmHg 78%
    18:00 -7°C° 0 mm 1 mps 605 mmHg 82%
    19:00 -7°C° 0.1 mm 1 mps 605 mmHg 82%
    20:00 -7°C° 0.1 mm 1 mps 606 mmHg 81%
    21:00 -7°C° 0.1 mm 1 mps 606 mmHg 80%
    22:00 -7°C° 0 mm 1 mps 605 mmHg 76%
    23:00 -8°C° 0 mm 1 mps 605 mmHg 72%

    26 February, Tuesday

    Time Temperature Precipitation Wind Pressure Humidity
    00:00 -9°C° 0 mm 2 mps 604 mmHg 68%
    01:00 -9°C° 0 mm 2 mps 604 mmHg 64%
    02:00 -9°C° 0 mm 2 mps 603 mmHg 59%
    03:00 -10°C° 0 mm 2 mps 603 mmHg 54%
    04:00 -10°C° 0 mm 2 mps 603 mmHg 52%
    05:00 -9°C° 0 mm 2 mps 603 mmHg 50%
    06:00 -9°C° 0 mm 2 mps 602 mmHg 48%
    07:00 -8°C° 0 mm 2 mps 603 mmHg 46%
    08:00 -7°C° 0 mm 2 mps 603 mmHg 43%
    09:00 -6°C° 0 mm 2 mps 603 mmHg 41%
    10:00 -5°C° 0 mm 2 mps 602 mmHg 42%
    11:00 -4°C° 0 mm 2 mps 602 mmHg 42%
    12:00 -4°C° 0 mm 3 mps 601 mmHg 43%
    13:00 -2°C° 0 mm 3 mps 600 mmHg 44%
    14:00 -2°C° 0 mm 3 mps 600 mmHg 44%
    15:00 -2°C° 0 mm 3 mps 599 mmHg 44%
    16:00 -3°C° 0 mm 2 mps 598 mmHg 49%
    17:00 -5°C° 0 mm 2 mps 597 mmHg 55%
    18:00 -6°C° 0 mm 2 mps 596 mmHg 60%
    19:00 -7°C° 0 mm 2 mps 595 mmHg 61%
    20:00 -7°C° 0 mm 2 mps 595 mmHg 61%
    21:00 -8°C° 0 mm 2 mps 595 mmHg 61%
    22:00 -7°C° 0 mm 1 mps 594 mmHg 62%
    23:00 -7°C° 0 mm 1 mps 594 mmHg 62%

    27 February, Wednesday

    Time Temperature Precipitation Wind Pressure Humidity
    00:00 -7°C° 0 mm 1 mps 594 mmHg 62%
    01:00 -8°C° 0 mm 1 mps 593 mmHg 64%
    02:00 -8°C° 0 mm 1 mps 593 mmHg 65%
    03:00 -8°C° 0 mm 1 mps 592 mmHg 66%
    04:00 -8°C° 0 mm 1 mps 593 mmHg 69%
    05:00 -8°C° 0 mm 1 mps 593 mmHg 72%
    06:00 -8°C° 0 mm 1 mps 593 mmHg 75%
    07:00 -8°C° 0 mm 1 mps 593 mmHg 74%
    08:00 -8°C° 0 mm 2 mps 594 mmHg 72%
    09:00 -7°C° 0 mm 2 mps 594 mmHg 71%
    10:00 -7°C° 0 mm 2 mps 595 mmHg 68%
    11:00 -6°C° 0 mm 2 mps 595 mmHg 65%
    12:00 -6°C° 0 mm 3 mps 595 mmHg 62%
    13:00 -5°C° 0 mm 2 mps 595 mmHg 63%
    14:00 -5°C° 0 mm 2 mps 595 mmHg 64%
    15:00 -5°C° 0 mm 2 mps 595 mmHg 65%
    16:00 -6°C° 0 mm 2 mps 595 mmHg 70%
    17:00 -7°C° 0 mm 2 mps 595 mmHg 75%
    18:00 -7°C° 0 mm 1 mps 595 mmHg 79%
    19:00 -7°C° 0 mm 1 mps 595 mmHg 78%
    20:00 -7°C° 0 mm 1 mps 595 mmHg 76%
    21:00 -7°C° 0 mm 1 mps 595 mmHg 74%
    22:00 -7°C° 0 mm 1 mps 595 mmHg 73%
    23:00 -7°C° 0 mm 1 mps 595 mmHg 72%
    Show more